| time (UTC) | temp C | wind direction | speed KPH | gust KPH | rain 1hr cm | rain 24hr cm | rain mn cm | humidity % | barometer mb |
| 20260505151614 | 8 | 255 | 0.0 | 0.0 | 0.00 | 0.76 | 0.76 | 93 | 1012.8 |
| 20260505140120 | 8 | 243 | 0.0 | 0.0 | 0.05 | 0.76 | 0.76 | 94 | 1012.9 |
| 20260505130112 | 9 | 249 | 0.0 | 0.0 | 0.08 | 0.71 | 0.71 | 92 | 1013.1 |
| 20260505124612 | 9 | 249 | 0.0 | 0.0 | 0.05 | 0.71 | 0.71 | 92 | 1013.0 |
| 20260505121643 | 9 | 249 | 0.0 | 0.0 | 0.03 | 0.66 | 0.66 | 92 | 1013.2 |
| 20260505114640 | 9 | 233 | 0.0 | 0.0 | 0.03 | 0.64 | 0.64 | 92 | 1013.2 |
| 20260505111615 | 8 | 243 | 0.0 | 0.0 | 0.18 | 0.64 | 0.64 | 92 | 1013.1 |
| 20260505110114 | 8 | 243 | 0.0 | 0.0 | 0.33 | 0.64 | 0.64 | 92 | 1013.1 |
| 20260505101638 | 8 | 243 | 0.0 | 0.0 | 0.38 | 0.43 | 0.43 | 92 | 1013.2 |
| 20260505094636 | 10 | 243 | 0.0 | 0.0 | 0.20 | 0.20 | 0.20 | 90 | 1013.1 |
| 20260505091634 | 10 | 243 | 0.0 | 0.0 | 0.05 | 0.05 | 0.05 | 88 | 1013.2 |
| 20260505084633 | 10 | 243 | 0.0 | 0.0 | 0.00 | 0.00 | 0.00 | 86 | 1013.3 |
| 20260505081633 | 10 | 250 | 0.0 | 0.0 | 0.00 | 0.00 | 0.00 | 85 | 1013.2 |
| 20260505074632 | 10 | 241 | 0.0 | 0.0 | 0.00 | 0.00 | 0.00 | 84 | 1013.0 |
| 20260505071631 | 11 | 252 | 0.0 | 0.0 | 0.00 | 0.00 | 0.00 | 80 | 1013.1 |
| 20260505064629 | 10 | 272 | 0.0 | 0.0 | 0.00 | 0.00 | 0.00 | 81 | 1013.0 |
| 20260505061628 | 10 | 233 | 0.0 | 0.0 | 0.00 | 0.00 | 0.00 | 83 | 1012.9 |
| 20260505054630 | 9 | 233 | 0.0 | 0.0 | 0.00 | 0.00 | 0.00 | 88 | 1012.8 |
| 20260505051628 | 8 | 233 | 0.0 | 0.0 | 0.00 | 0.00 | 0.00 | 91 | 1012.7 |
| 20260505041625 | 7 | 233 | 0.0 | 0.0 | 0.00 | 0.00 | 0.00 | 93 | 1012.8 |
| 20260505034625 | 7 | 233 | 0.0 | 0.0 | 0.00 | 0.00 | 0.00 | 93 | 1012.9 |
| 20260505031621 | 6 | 233 | 0.0 | 0.0 | 0.00 | 0.00 | 0.00 | 93 | 1013.3 |
| 20260505024621 | 6 | 233 | 0.0 | 0.0 | 0.00 | 0.00 | 0.00 | 93 | 1013.4 |
| 20260505021619 | 6 | 233 | 0.0 | 0.0 | 0.00 | 0.00 | 0.00 | 93 | 1013.5 |
| 20260505014622 | 5 | 233 | 0.0 | 0.0 | 0.00 | 0.00 | 0.00 | 93 | 1013.9 |
| 20260505011622 | 5 | 233 | 0.0 | 0.0 | 0.00 | 0.00 | 0.00 | 92 | 1014.2 |
| 20260505010118 | 5 | 233 | 0.0 | 0.0 | 0.00 | 0.00 | 0.00 | 91 | 1014.3 |
| 20260505003115 | 6 | 233 | 0.0 | 0.0 | 0.00 | 0.00 | 0.00 | 91 | 1014.8 |
| 20260505001619 | 6 | 233 | 0.0 | 0.0 | 0.00 | 0.00 | 0.00 | 91 | 1014.9 |
| 20260504234621 | 6 | 233 | 0.0 | 0.0 | 0.00 | 0.00 | 0.00 | 90 | 1015.1 |
| 20260504231620 | 7 | 233 | 0.0 | 0.0 | 0.00 | 0.00 | 0.00 | 90 | 1015.5 |
| 20260504224622 | 7 | 233 | 0.0 | 0.0 | 0.00 | 0.00 | 0.00 | 89 | 1015.8 |
| 20260504223125 | 8 | 233 | 0.0 | 0.0 | 0.00 | 0.00 | 0.00 | 88 | 1016.0 |
| 20260504220139 | 8 | 233 | 0.0 | 0.0 | 0.00 | 0.00 | 0.00 | 88 | 1016.2 |
| 20260504214617 | 8 | 233 | 0.0 | 0.0 | 0.00 | 0.00 | 0.00 | 87 | 1016.2 |
| 20260504211620 | 8 | 233 | 0.0 | 0.0 | 0.00 | 0.00 | 0.00 | 86 | 1016.3 |
| 20260504204622 | 9 | 233 | 0.0 | 0.0 | 0.00 | 0.00 | 0.00 | 85 | 1016.4 |
| 20260504201621 | 10 | 233 | 0.0 | 0.0 | 0.00 | 0.00 | 0.00 | 82 | 1016.3 |
| 20260504194618 | 11 | 233 | 0.0 | 0.0 | 0.00 | 0.00 | 0.00 | 79 | 1016.4 |
| 20260504191625 | 13 | 233 | 0.0 | 1.6 | 0.00 | 0.00 | 0.00 | 75 | 1016.2 |
| 20260504184621 | 14 | 240 | 0.0 | 11.3 | 0.00 | 0.00 | 0.00 | 72 | 1016.1 |
| 20260504181621 | 15 | 234 | 0.0 | 4.8 | 0.00 | 0.00 | 0.00 | 69 | 1016.0 |
| 20260504174617 | 15 | 188 | 0.0 | 1.6 | 0.00 | 0.00 | 0.00 | 63 | 1016.0 |
| 20260504171619 | 16 | 263 | 3.2 | 6.4 | 0.00 | 0.00 | 0.00 | 57 | 1015.8 |